Regional Weather Roundup
Issued by NWS Albany, NY

Home | Current Version | Previous Version | Graphics & Text | Print | Product List | Glossary On
Versions: 1 2 3 4 5 6 7 8 9 10 11 12 13 14 15 16 17 18 19 20 21 22 23 24 25 26 27 28 29 30 31 32 33 34 35 36 37 38 39 40 41 42 43 44 45 46 47 48 49 50
000
ASUS41 KALY 271410
RWRALY

NEW YORK STATE HOURLY WEATHER ROUNDUP
NATIONAL WEATHER SERVICE ALBANY NY
1000 AM EDT WED AUG 27 2014

NOTE: "FAIR" INDICATES FEW OR NO CLOUDS BELOW 12,000 FEET WITH NO
SIGNIFICANT WEATHER AND/OR NO OBSTRUCTIONS TO VISIBILITY.

NYZ032-033-038>043-046>054-057>066-NYZ062>081-271500-
EAST


CITY           SKY/WX    TMP DP  RH WIND       PRES   REMARKS
ALBANY         PTSUNNY   75  64  68 S9        29.99F
GLENS FALLS    MOSUNNY   74  65  73 VRB5      29.97F
POUGHKEEPSIE   MOSUNNY   76  64  66 S6        30.00F
NEWBURGH       MOSUNNY   75  64  69 W10       30.03F
MONTGOMERY     PTSUNNY   74  64  71 SW8       30.03F
WHITE PLAINS   SUNNY     79  63  57 VRB5      30.03F
ISLIP          SUNNY     77  65  66 S8        30.02F
NEW YORK CITY  SUNNY     81  61  50 S7        30.02F
CENTRAL PARK   SUNNY     79  60  52 CALM      30.06F
$$

NYZ005>009-017-018-044>046-055-056-271500-
CENTRAL


CITY           SKY/WX    TMP DP  RH WIND       PRES   REMARKS
FULTON         PTSUNNY   75  67  76 NW8       30.01S
SYRACUSE       CLOUDY    74  67  78 W7        30.01S
ROME           CLOUDY    73  65  75 NW5       30.01F
ELMIRA         PTSUNNY   74  66  76 SW3       30.03F
BINGHAMTON     CLOUDY    72  63  73 SW5       30.06F
MONTICELLO     SUNNY     72  63  73 CALM      30.08S
$$

NYZ026>034-041>043-271500-
NORTH


CITY           SKY/WX    TMP DP  RH WIND       PRES   REMARKS
WATERTOWN      MOSUNNY   73  62  68 W6        29.99S
FORT DRUM      NOT AVBL
MASSENA        PTSUNNY   71  61  70 NW8       29.97F
SARANAC LAKE   CLOUDY    68  63  84 W6        29.99F
PLATTSBURGH    PTSUNNY   73  65  75 SE7       29.94S
$$

NYZ001>004-010>016-019>021-271500-
WEST


CITY           SKY/WX    TMP DP  RH WIND       PRES   REMARKS
NIAGARA FALLS  PTSUNNY   68  58  70 N8        30.06S
BUFFALO        PTSUNNY   69  59  70 N10       30.06R
DUNKIRK        CLOUDY    71  63  75 CALM      30.08R
JAMESTOWN      CLOUDY    72  66  83 NW9       30.10S
WELLSVILLE     PTSUNNY   70  66  87 W9        30.12S
ROCHESTER      CLOUDY    70  62  76 NW7       30.05R
PENN YAN       CLOUDY    71  67  87 NW7       30.05S
$$

             KEY
       WCI = WIND CHILL INDEX
       VSB = VISIBILITY
       HX  = HEAT INDEX
$$



USA.gov is the U.S. government's official web portal to all federal, state and local government web resources and services.